DW9097 Weather Reports


time (UTC)temp
C
wind
direction
speed
KPH
gust
KPH
rain 1hr
cm
rain 24hr
cm
rain mn
cm
humidity
%
barometer
mb
20260906093239 31 183 0.0 3.2 0.00 0.00 0.00 38 941.4
20260906092737 31 52 0.0 0.0 0.00 0.00 0.00 37 941.4
20260906092636 31 171 0.0 0.0 0.00 0.00 0.00 38 1022.0
20260906092238 31 157 0.0 0.0 0.00 0.00 0.00 37 941.5
20260906092135 31 176 0.0 0.0 0.00 0.00 0.00 38 1022.0
20260906091736 31 230 0.0 8.0 0.00 0.00 0.00 37 941.5
20260906091637 31 234 0.0 0.0 0.00 0.00 0.00 36 1022.0
20260906091345 31 224 0.0 8.0 0.00 0.00 0.00 35 941.5
20260906091134 31 197 0.0 0.0 0.00 0.00 0.00 33 1022.0
20260906090734 32 186 0.0 0.0 0.00 0.00 0.00 36 941.5
20260906090652 32 233 0.0 0.0 0.00 0.00 0.00 33 1022.0
20260906090238 32 233 0.0 0.0 0.00 0.00 0.00 34 941.5
20260906090115 31 233 0.0 0.0 0.00 0.00 0.00 34 1022.0
20260906085953 31 230 0.0 0.0 0.00 0.00 0.00 35 941.4
20260906085851 31 230 0.0 0.0 0.00 0.00 0.00 35 941.4
20260906085701 31 196 0.0 0.0 0.00 0.00 0.00 36 1022.0
20260906085643 31 254 0.0 0.0 0.00 0.00 0.00 35 1022.0
20260906085238 31 196 0.0 0.0 0.00 0.00 0.00 35 941.4
20260906085104 31 196 0.0 0.0 0.00 0.00 0.00 36 1022.0
20260906085002 31 199 0.0 0.0 0.00 0.00 0.00 34 941.5
20260906084840 31 199 0.0 0.0 0.00 0.00 0.00 34 941.5
20260906084607 31 199 0.0 0.0 0.00 0.00 0.00 36 1022.0
20260906084239 30 199 0.0 0.0 0.00 0.00 0.00 36 941.4
20260906084106 30 200 0.0 0.0 0.00 0.00 0.00 36 1022.0
20260906083733 30 195 0.0 0.0 0.00 0.00 0.00 36 941.4
20260906083610 30 195 0.0 0.0 0.00 0.00 0.00 37 1021.9
20260906083238 30 164 0.0 0.0 0.00 0.00 0.00 38 941.4
20260906083105 30 164 0.0 0.0 0.00 0.00 0.00 37 1021.9
20260906082736 30 158 0.0 0.0 0.00 0.00 0.00 37 941.3
20260906082613 30 142 0.0 0.0 0.00 0.00 0.00 37 1021.9
20260906082353 30 212 0.0 0.0 0.00 0.00 0.00 38 1021.8
20260906082312 30 212 0.0 0.0 0.00 0.00 0.00 38 1021.8
20260906082237 30 212 0.0 1.6 0.00 0.00 0.00 38 941.4
20260906081734 30 212 0.0 1.6 0.00 0.00 0.00 38 941.2
20260906081725 30 206 0.0 0.0 0.00 0.00 0.00 38 941.2
20260906081557 30 212 0.0 0.0 0.00 0.00 0.00 38 1021.8
20260906081238 30 206 0.0 0.0 0.00 0.00 0.00 38 941.2
20260906081054 30 206 0.0 0.0 0.00 0.00 0.00 38 1021.8
20260906081007 30 206 0.0 0.0 0.00 0.00 0.00 39 941.2
20260906080853 30 206 0.0 0.0 0.00 0.00 0.00 39 941.2
20260906080537 30 189 0.0 0.0 0.00 0.00 0.00 38 1021.7
20260906080236 30 186 0.0 0.0 0.00 0.00 0.00 38 941.2
20260906080036 30 188 0.0 0.0 0.00 0.00 0.00 41 1021.8
20260906075735 30 186 0.0 0.0 0.00 0.00 0.00 38 941.1
20260906075511 30 161 0.0 0.0 0.00 0.00 0.00 36 1021.7
20260906075237 30 161 0.0 4.8 0.00 0.00 0.00 39 941.1
20260906074959 -17 161 0.0 0.0 0.00 0.00 0.00 1021.6
20260906074836 30 161 0.0 4.8 0.00 0.00 0.00 41 941.0
20260906074726 -17 162 0.0 0.0 0.00 0.00 0.00 1021.5
20260906074456 29 161 0.0 0.0 0.00 0.00 0.00 37 941.0
20260906074450 -17 162 0.0 0.0 0.00 0.00 0.00 1021.5
20260906074344 29 161 0.0 0.0 0.00 0.00 0.00 37 941.0
20260906073702 29 161 0.0 0.0 0.00 0.00 0.00 37 941.0
20260906073304 29 161 0.0 0.0 0.00 0.00 0.00 37 940.9
20260906072927 29 161 0.0 0.0 0.00 0.00 0.00 41 940.9
20260906072808 29 161 0.0 0.0 0.00 0.00 0.00 41 940.9
20260906072158 29 162 0.0 0.0 0.00 0.00 0.00 38 940.9
20260906071701 29 162 0.0 0.0 0.00 0.00 0.00 38 940.9
20260906071425 28 162 0.0 0.0 0.00 0.00 0.00 38 940.8
20260906071306 28 162 0.0 0.0 0.00 0.00 0.00 38 940.8
20260906070710 28 162 0.0 0.0 0.00 0.00 0.00 37 940.8
20260906070427 28 161 0.0 0.0 0.00 0.00 0.00 39 940.7
20260906070317 28 161 0.0 0.0 0.00 0.00 0.00 39 940.7
20260906065702 28 161 0.0 0.0 0.00 0.00 0.00 39 940.7
20260906065158 28 161 0.0 0.0 0.00 0.00 0.00 40 940.6
20260906064923 28 161 0.0 0.0 0.00 0.00 0.00 40 940.6
20260906064807 28 161 0.0 0.0 0.00 0.00 0.00 40 940.6
20260906064422 28 161 0.0 0.0 0.00 0.00 0.00 41 940.6
20260906064159 28 161 0.0 0.0 0.00 0.00 0.00 41 940.6
20260906063700 27 161 0.0 0.0 0.00 0.00 0.00 44 940.6
20260906063421 27 161 0.0 0.0 0.00 0.00 0.00 45 940.6
20260906063304 27 161 0.0 0.0 0.00 0.00 0.00 45 940.6
20260906062701 27 161 0.0 0.0 0.00 0.00 0.00 45 940.6
20260906062158 26 161 0.0 0.0 0.00 0.00 0.00 46 940.5
20260906061659 25 161 0.0 0.0 0.00 0.00 0.00 51 940.5
20260906061428 23 161 0.0 0.0 0.00 0.00 0.00 54 940.4
20260906061303 23 161 0.0 0.0 0.00 0.00 0.00 54 940.4
20260906060920 21 161 0.0 0.0 0.00 0.00 0.00 55 940.4
20260906060807 21 161 0.0 0.0 0.00 0.00 0.00 55 940.4
20260906060424 21 161 0.0 0.0 0.00 0.00 0.00 55 940.4
20260906060157 21 161 0.0 0.0 0.00 0.00 0.00 55 940.4
20260906055701 21 161 0.0 0.0 0.00 0.00 0.00 53 940.4
20260906055420 21 161 0.0 0.0 0.00 0.00 0.00 52 940.4
20260906055306 21 161 0.0 0.0 0.00 0.00 0.00 52 940.4
20260906054659 21 161 0.0 0.0 0.00 0.00 0.00 52 940.3
20260906054159 20 161 0.0 0.0 0.00 0.00 0.00 52 940.4
20260906053927 20 161 0.0 0.0 0.00 0.00 0.00 51 940.2
20260906053805 20 161 0.0 0.0 0.00 0.00 0.00 51 940.2
20260906053207 20 161 0.0 0.0 0.00 0.00 0.00 51 940.3
20260906052700 20 161 0.0 0.0 0.00 0.00 0.00 51 940.3
20260906052416 20 161 0.0 0.0 0.00 0.00 0.00 51 940.2
20260906052300 20 161 0.0 0.0 0.00 0.00 0.00 51 940.2
20260906051658 20 161 0.0 0.0 0.00 0.00 0.00 53 940.2
20260906051158 20 159 0.0 0.0 0.00 0.00 0.00 54 940.2
20260906050658 19 161 0.0 0.0 0.00 0.00 0.00 55 940.2
20260906050156 19 161 0.0 0.0 0.00 0.00 0.00 55 940.2
20260906045659 19 161 0.0 0.0 0.00 0.00 0.00 56 940.2
20260906045156 19 161 0.0 0.0 0.00 0.00 0.00 56 940.2
20260906044659 19 161 0.0 0.0 0.00 0.00 0.00 57 940.2
20260906044411 19 161 0.0 0.0 0.00 0.00 0.00 58 940.2
20260906044301 19 161 0.0 0.0 0.00 0.00 0.00 58 940.2
20260906043656 19 162 0.0 0.0 0.00 0.00 0.00 57 940.2
20260906043209 19 162 0.0 0.0 0.00 0.00 0.00 56 940.2
20260906042658 19 161 0.0 0.0 0.00 0.00 0.00 56 940.1
20260906042155 19 161 0.0 0.0 0.00 0.00 0.00 56 940.0
20260906041658 19 161 0.0 0.0 0.00 0.00 0.00 56 940.1
20260906041157 20 161 0.0 0.0 0.00 0.00 0.00 55 940.0
20260906040921 20 161 0.0 0.0 0.00 0.00 0.00 54 940.0
20260906040657 20 161 0.0 0.0 0.00 0.00 0.00 54 940.0
20260906040155 20 161 0.0 0.0 0.00 0.00 0.00 53 940.0
20260906035659 20 161 0.0 0.0 0.00 0.00 0.00 53 940.0
20260906035154 20 161 0.0 0.0 0.00 0.00 0.00 51 940.0
20260906034658 20 161 0.0 0.0 0.00 0.00 0.00 50 939.9
20260906034156 20 161 0.0 0.0 0.00 0.00 0.00 49 939.8
20260906033657 20 161 0.0 0.0 0.00 0.00 0.00 48 939.8
20260906033418 20 161 0.0 0.0 0.00 0.00 0.00 49 939.9
20260906033258 20 161 0.0 0.0 0.00 0.00 0.00 49 939.9
20260906032658 20 162 0.0 0.0 0.00 0.00 0.00 49 939.9
20260906032152 20 161 0.0 0.0 0.00 0.00 0.00 50 939.9
20260906031656 20 161 0.0 0.0 0.00 0.00 0.00 52 939.9
20260906031415 20 161 0.0 0.0 0.00 0.00 0.00 55 939.9
20260906031301 20 161 0.0 0.0 0.00 0.00 0.00 55 939.9
20260906030656 20 161 0.0 0.0 0.00 0.00 0.00 55 939.9
20260906030152 20 161 0.0 0.0 0.00 0.00 0.00 57 939.9
20260906025656 20 161 0.0 0.0 0.00 0.00 0.00 59 939.9
20260906025152 20 161 0.0 0.0 0.00 0.00 0.00 60 939.9
20260906024803 20 161 0.0 0.0 0.00 0.00 0.00 60 939.9
20260906024153 20 161 0.0 0.0 0.00 0.00 0.00 60 939.9
20260906023656 20 161 0.0 0.0 0.00 0.00 0.00 60 939.9
20260906023413 20 161 0.0 0.0 0.00 0.00 0.00 59 939.9
20260906023258 20 161 0.0 0.0 0.00 0.00 0.00 59 939.9
20260906022657 20 161 0.0 0.0 0.00 0.00 0.00 60 939.9
20260906022151 20 162 0.0 0.0 0.00 0.00 0.00 60 940.0
20260906021658 20 161 0.0 0.0 0.00 0.00 0.00 60 940.0
20260906021647 20 161 0.0 0.0 0.00 0.00 0.00 59 940.0
20260906021153 20 161 0.0 0.0 0.00 0.00 0.00 59 940.0
20260906020655 20 161 0.0 0.0 0.00 0.00 0.00 59 940.0
20260906020152 20 162 0.0 0.0 0.00 0.00 0.00 58 940.1
20260906015929 20 161 0.0 0.0 0.00 0.00 0.00 58 940.1
20260906015655 20 161 0.0 0.0 0.00 0.00 0.00 58 940.1
20260906015643 20 162 0.0 0.0 0.00 0.00 0.00 59 940.1
20260906015152 20 162 0.0 0.0 0.00 0.00 0.00 59 940.1
20260906014652 20 161 0.0 0.0 0.00 0.00 0.00 59 940.2
20260906014152 19 161 0.0 0.0 0.00 0.00 0.00 59 940.2
20260906013654 19 161 0.0 0.0 0.00 0.00 0.00 60 940.2
20260906013151 19 161 0.0 0.0 0.00 0.00 0.00 60 940.3
20260906012655 19 161 0.0 0.0 0.00 0.00 0.00 60 940.2
20260906012152 19 162 0.0 0.0 0.00 0.00 0.00 60 940.3
20260906011654 19 161 0.0 0.0 0.00 0.00 0.00 59 940.2
20260906011152 19 161 0.0 0.0 0.00 0.00 0.00 59 940.3
20260906010918 20 161 0.0 0.0 0.00 0.00 0.00 59 940.2
20260906010801 20 161 0.0 0.0 0.00 0.00 0.00 59 940.2
20260906010523 20 161 0.0 0.0 0.00 0.00 0.00 58 940.3
20260906010417 20 161 0.0 0.0 0.00 0.00 0.00 58 940.3
20260906005655 20 161 0.0 0.0 0.00 0.00 0.00 58 940.3
20260906005410 20 161 0.0 0.0 0.00 0.00 0.00 57 940.3
20260906005254 20 161 0.0 0.0 0.00 0.00 0.00 57 940.3
20260906004652 20 161 0.0 0.0 0.00 0.00 0.00 57 940.3
20260906004152 20 161 0.0 0.0 0.00 0.00 0.00 57 940.2
20260906003653 20 161 0.0 0.0 0.00 0.00 0.00 57 940.2
20260906003150 20 161 0.0 0.0 0.00 0.00 0.00 57 940.3
20260906002654 20 161 0.0 0.0 0.00 0.00 0.00 57 940.2
20260906002416 20 162 0.0 0.0 0.00 0.00 0.00 57 940.2
20260906002254 20 162 0.0 0.0 0.00 0.00 0.00 57 940.2
20260906001919 20 161 0.0 0.0 0.00 0.00 0.00 57 940.2
20260906001652 20 161 0.0 0.0 0.00 0.00 0.00 57 940.2
20260906001150 20 161 0.0 0.0 0.00 0.00 0.00 58 940.2
20260906000652 20 161 0.0 0.0 0.00 0.00 0.00 58 940.3
20260906000411 20 161 0.0 0.0 0.00 0.00 0.00 58 940.2
20260906000256 20 161 0.0 0.0 0.00 0.00 0.00 58 940.2
20260905235922 20 161 0.0 0.0 0.00 0.00 0.00 57 940.3
20260905235653 20 161 0.0 0.0 0.00 0.00 0.00 57 940.3
20260905235149 20 161 0.0 0.0 0.00 0.00 0.00 57 940.4
20260905234919 21 161 0.0 0.0 0.00 0.00 0.00 57 940.4
20260905234651 21 161 0.0 0.0 0.00 0.00 0.00 57 940.4
20260905234150 21 161 0.0 0.0 0.00 0.00 0.00 57 940.5
20260905233758 21 161 0.0 0.0 0.00 0.00 0.00 57 940.5
20260905233147 21 161 0.0 0.0 0.00 0.00 0.00 57 940.4
20260905232652 21 161 0.0 0.0 0.00 0.00 0.00 57 940.5
20260905232148 21 161 0.0 0.0 0.00 0.00 0.00 57 940.5
20260905231650 21 161 0.0 0.0 0.00 0.00 0.00 57 940.5
20260905231410 22 161 0.0 0.0 0.00 0.00 0.00 57 940.6
20260905231255 22 161 0.0 0.0 0.00 0.00 0.00 57 940.6
20260905230921 22 161 0.0 0.0 0.00 0.00 0.00 57 940.5
20260905230651 22 161 0.0 0.0 0.00 0.00 0.00 57 940.5
20260905230150 22 162 0.0 0.0 0.00 0.00 0.00 57 940.5
20260905230142 22 161 0.0 0.0 0.00 0.00 0.00 58 940.5
20260905225652 22 161 0.0 0.0 0.00 0.00 0.00 58 940.5
20260905225148 22 161 0.0 0.0 0.00 0.00 0.00 59 940.6
20260905224650 22 161 0.0 0.0 0.00 0.00 0.00 59 940.6
20260905224149 22 161 0.0 0.0 0.00 0.00 0.00 60 940.7
20260905223650 22 164 0.0 0.0 0.00 0.00 0.00 60 940.7
20260905223411 22 161 0.0 0.0 0.00 0.00 0.00 60 940.6
20260905223147 22 161 0.0 0.0 0.00 0.00 0.00 60 940.6
20260905222931 22 161 0.0 0.0 0.00 0.00 0.00 60 940.6
20260905222652 22 161 0.0 0.0 0.00 0.00 0.00 60 940.6
20260905222147 22 161 0.0 0.0 0.00 0.00 0.00 59 940.6
20260905221915 22 161 0.0 0.0 0.00 0.00 0.00 60 940.7
20260905221757 22 161 0.0 0.0 0.00 0.00 0.00 60 940.7
20260905221147 22 161 0.0 0.0 0.00 0.00 0.00 60 940.6
20260905220648 22 161 0.0 0.0 0.00 0.00 0.00 60 940.6
20260905220147 22 161 0.0 0.0 0.00 0.00 0.00 59 940.6
20260905215921 22 161 0.0 0.0 0.00 0.00 0.00 59 940.7
20260905215650 22 161 0.0 0.0 0.00 0.00 0.00 59 940.7
20260905215147 22 162 0.0 0.0 0.00 0.00 0.00 59 940.7
20260905214649 22 162 0.0 0.0 0.00 0.00 0.00 59 940.7
20260905214148 22 161 0.0 0.0 0.00 0.00 0.00 59 940.7
20260905213649 22 161 0.0 0.0 0.00 0.00 0.00 59 940.7
20260905213146 22 161 0.0 0.0 0.00 0.00 0.00 59 940.6
20260905212649 22 161 0.0 0.0 0.00 0.00 0.00 59 940.6
20260905212510 22 161 0.0 0.0 0.00 0.00 0.00 59 940.6
20260905212410 22 161 0.0 0.0 0.00 0.00 0.00 59 940.6
20260905211915 22 161 0.0 0.0 0.00 0.00 0.00 58 940.6
20260905211756 22 161 0.0 0.0 0.00 0.00 0.00 58 940.6
20260905211146 22 161 0.0 0.0 0.00 0.00 0.00 59 940.7
20260905210755 23 161 0.0 0.0 0.00 0.00 0.00 59 940.7
20260905210252 23 161 0.0 0.0 0.00 0.00 0.00 58 940.7
20260905205920 23 161 0.0 0.0 0.00 0.00 0.00 58 940.6
20260905205757 23 161 0.0 0.0 0.00 0.00 0.00 58 940.6
20260905205413 23 162 0.0 0.0 0.00 0.00 0.00 58 940.6
20260905205145 23 162 0.0 0.0 0.00 0.00 0.00 58 940.6
20260905204906 23 161 0.0 0.0 0.00 0.00 0.00 58 940.7
20260905204755 23 161 0.0 0.0 0.00 0.00 0.00 58 940.7
20260905204147 23 159 0.0 0.0 0.00 0.00 0.00 57 940.7
20260905203647 23 161 0.0 0.0 0.00 0.00 0.00 57 940.7
20260905203144 23 161 0.0 0.0 0.00 0.00 0.00 57 940.7
20260905202648 23 162 0.0 0.0 0.00 0.00 0.00 57 940.8
20260905202145 23 162 0.0 0.0 0.00 0.00 0.00 57 940.8
20260905201648 23 161 0.0 0.0 0.00 0.00 0.00 57 940.8
20260905201147 23 161 0.0 0.0 0.00 0.00 0.00 56 940.8
20260905200647 23 161 0.0 0.0 0.00 0.00 0.00 56 940.9
20260905200144 23 161 0.0 0.0 0.00 0.00 0.00 56 940.9
20260905195649 23 161 0.0 0.0 0.00 0.00 0.00 56 940.9
20260905195143 23 161 0.0 0.0 0.00 0.00 0.00 56 940.9
20260905194915 23 161 0.0 0.0 0.00 0.00 0.00 56 941.1
20260905194755 23 161 0.0 0.0 0.00 0.00 0.00 56 941.1
20260905194145 23 161 0.0 0.0 0.00 0.00 0.00 57 940.9
20260905193754 23 162 0.0 0.0 0.00 0.00 0.00 57 940.9
20260905193632 23 161 0.0 0.0 0.00 0.00 0.00 57 940.9
20260905193143 23 161 0.0 0.0 0.00 0.00 0.00 57 940.9
20260905192648 23 161 0.0 0.0 0.00 0.00 0.00 57 941.0
20260905192144 23 161 0.0 0.0 0.00 0.00 0.00 57 940.8
20260905191646 23 161 0.0 0.0 0.00 0.00 0.00 57 940.7
20260905191145 23 161 0.0 0.0 0.00 0.00 0.00 57 940.7
20260905190923 23 161 0.0 0.0 0.00 0.00 0.00 58 940.6
20260905190658 23 161 0.0 0.0 0.00 0.00 0.00 58 940.6
20260905190142 23 161 0.0 0.0 0.00 0.00 0.00 58 940.7
20260905185919 23 161 0.0 0.0 0.00 0.00 0.00 58 940.6
20260905185800 23 161 0.0 0.0 0.00 0.00 0.00 58 940.6
20260905185248 23 161 0.0 0.0 0.00 0.00 0.00 58 940.5
20260905184644 23 161 0.0 0.0 0.00 0.00 0.00 58 940.3
20260905184145 23 161 0.0 0.0 0.00 0.00 0.00 59 940.4
20260905183645 23 159 0.0 0.0 0.00 0.00 0.00 59 940.4
20260905183142 23 161 0.0 0.0 0.00 0.00 0.00 59 940.3
20260905182647 23 162 0.0 0.0 0.00 0.00 0.00 60 940.4
20260905182143 23 161 0.0 0.0 0.00 0.00 0.00 61 940.4
20260905181645 24 161 0.0 0.0 0.00 0.00 0.00 61 940.3
20260905181144 24 161 0.0 0.0 0.00 0.00 0.00 61 940.3
20260905180917 24 161 0.0 0.0 0.00 0.00 0.00 61 940.3
20260905180646 24 161 0.0 0.0 0.00 0.00 0.00 61 940.3
20260905180142 25 161 0.0 0.0 0.00 0.00 0.00 60 940.3
20260905175646 25 161 0.0 0.0 0.00 0.00 0.00 60 940.2
20260905175405 25 161 0.0 0.0 0.00 0.00 0.00 59 940.2
20260905174644 25 161 0.0 0.0 0.00 0.00 0.00 58 940.1
20260905174142 25 162 0.0 0.0 0.00 0.00 0.00 58 940.1
20260905173750 25 161 0.0 0.0 0.00 0.00 0.00 58 940.2
20260905173423 26 161 0.0 0.0 0.00 0.00 0.00 58 940.3
20260905173153 26 161 0.0 0.0 0.00 0.00 0.00 58 940.3
20260905172913 26 162 0.0 0.0 0.00 0.00 0.00 57 940.1
20260905172752 26 162 0.0 0.0 0.00 0.00 0.00 57 940.1
20260905172401 26 161 0.0 0.0 0.00 0.00 0.00 56 940.1
20260905172246 26 161 0.0 0.0 0.00 0.00 0.00 56 940.1
20260905171648 26 161 0.0 0.0 0.00 0.00 0.00 55 940.1
20260905171413 26 161 0.0 0.0 0.00 0.00 0.00 54 940.2
20260905171142 26 161 0.0 0.0 0.00 0.00 0.00 54 940.2
20260905170642 26 161 0.0 0.0 0.00 0.00 0.00 52 940.2
20260905170154 27 161 0.0 0.0 0.00 0.00 0.00 51 940.3
20260905170013 27 161 0.0 0.0 0.00 0.00 0.00 51 940.3
20260905165909 27 161 0.0 0.0 0.00 0.00 0.00 51 940.3
20260905165141 27 161 0.0 0.0 0.00 0.00 0.00 51 940.3
20260905164644 27 161 0.0 0.0 0.00 0.00 0.00 51 940.3
20260905164140 27 161 0.0 0.0 0.00 0.00 0.00 50 940.2
20260905163913 27 161 0.0 0.0 0.00 0.00 0.00 50 940.2
20260905163644 27 161 0.0 0.0 0.00 0.00 0.00 50 940.2
20260905163403 28 162 0.0 0.0 0.00 0.00 0.00 50 940.2
20260905163140 28 162 0.0 0.0 0.00 0.00 0.00 50 940.2
20260905162646 28 161 0.0 0.0 0.00 0.00 0.00 50 940.0
20260905162140 28 161 0.0 0.0 0.00 0.00 0.00 49 940.2
20260905161644 29 162 0.0 0.0 0.00 0.00 0.00 49 940.1
20260905161141 29 161 0.0 0.0 0.00 0.00 0.00 49 940.0
20260905160641 29 161 0.0 0.0 0.00 0.00 0.00 49 940.1
20260905160402 29 161 0.0 0.0 0.00 0.00 0.00 49 940.1
20260905160138 29 161 0.0 0.0 0.00 0.00 0.00 49 940.1
20260905155644 30 162 0.0 0.0 0.00 0.00 0.00 49 940.1
20260905155412 30 148 0.0 0.0 0.00 0.00 0.00 50 940.1
20260905155140 30 148 0.0 0.0 0.00 0.00 0.00 50 940.1
20260905154641 30 18 0.0 0.0 0.00 0.00 0.00 51 940.2
20260905154140 30 25 0.0 0.0 0.00 0.00 0.00 51 940.1
20260905153642 30 27 0.0 0.0 0.00 0.00 0.00 51 940.2
20260905153138 30 69 0.0 0.0 0.00 0.00 0.00 51 940.1
20260905152643 30 66 0.0 0.0 0.00 0.00 0.00 50 940.2
20260905152138 30 6 0.0 0.0 0.00 0.00 0.00 50 940.2
20260905151641 30 350 0.0 1.6 0.00 0.00 0.00 49 940.1
20260905151139 30 245 0.0 1.6 0.00 0.00 0.00 48 940.1
20260905150640 30 186 0.0 0.0 0.00 0.00 0.00 48 940.0
20260905150357 30 14 0.0 0.0 0.00 0.00 0.00 48 940.1
20260905150244 30 14 0.0 0.0 0.00 0.00 0.00 48 940.1
20260905145642 30 31 0.0 0.0 0.00 0.00 0.00 49 940.0
20260905145139 30 45 0.0 0.0 0.00 0.00 0.00 48 940.0
20260905144640 31 171 0.0 0.0 0.00 0.00 0.00 46 940.1
20260905144139 31 214 0.0 0.0 0.00 0.00 0.00 46 940.0
20260905143902 31 48 0.0 0.0 0.00 0.00 0.00 45 940.0
20260905143748 31 48 0.0 0.0 0.00 0.00 0.00 45 940.0
20260905143136 32 47 0.0 0.0 0.00 0.00 0.00 45 940.0
20260905142910 32 176 0.0 0.0 0.00 0.00 0.00 43 939.9
20260905142749 32 176 0.0 0.0 0.00 0.00 0.00 43 939.9
20260905142137 32 71 0.0 0.0 0.00 0.00 0.00 42 940.0
20260905141639 32 63 0.0 0.0 0.00 0.00 0.00 43 940.0
20260905141403 32 114 0.0 0.0 0.00 0.00 0.00 42 939.9
20260905141138 32 114 0.0 0.0 0.00 0.00 0.00 42 939.9
20260905140640 32 0 0.0 1.6 0.00 0.00 0.00 44 940.0
20260905140359 32 350 0.0 1.6 0.00 0.00 0.00 43 939.9
20260905140242 32 350 0.0 1.6 0.00 0.00 0.00 43 939.9
20260905135639 32 86 0.0 0.0 0.00 0.00 0.00 41 940.0
20260905135410 32 196 0.0 0.0 0.00 0.00 0.00 43 940.0
20260905135255 32 196 0.0 0.0 0.00 0.00 0.00 43 940.0
20260905134639 32 58 0.0 0.0 0.00 0.00 0.00 41 939.9
20260905134138 32 185 0.0 0.0 0.00 0.00 0.00 42 939.9
20260905133639 32 47 0.0 0.0 0.00 0.00 0.00 44 940.1
20260905133401 31 89 0.0 0.0 0.00 0.00 0.00 45 940.0
20260905133242 31 89 0.0 0.0 0.00 0.00 0.00 45 940.0
20260905132902 32 39 0.0 0.0 0.00 0.00 0.00 42 940.1
20260905132748 32 39 0.0 0.0 0.00 0.00 0.00 42 940.1
20260905132148 32 44 0.0 0.0 0.00 0.00 0.00 42 940.1
20260905131637 32 237 0.0 0.0 0.00 0.00 0.00 42 940.1
20260905131150 32 45 0.0 0.0 0.00 0.00 0.00 40 940.2
20260905130905 32 195 0.0 0.0 0.00 0.00 0.00 40 940.2
20260905130747 32 195 0.0 0.0 0.00 0.00 0.00 40 940.2
20260905130415 32 210 0.0 8.0 0.00 0.00 0.00 40 940.2
20260905130138 32 210 0.0 8.0 0.00 0.00 0.00 40 940.2
20260905125639 31 299 0.0 8.0 0.00 0.00 0.00 41 940.2
20260905125135 32 157 0.0 0.0 0.00 0.00 0.00 40 940.3
20260905124907 32 183 0.0 1.6 0.00 0.00 0.00 42 940.3
20260905124747 32 183 0.0 1.6 0.00 0.00 0.00 42 940.3
20260905124242 31 65 0.0 1.6 0.00 0.00 0.00 44 940.3
20260905123901 31 247 0.0 0.0 0.00 0.00 0.00 44 940.4
20260905123638 31 247 0.0 0.0 0.00 0.00 0.00 44 940.4
20260905123135 31 188 0.0 0.0 0.00 0.00 0.00 41 940.5
20260905122638 32 49 0.0 0.0 0.00 0.00 0.00 42 940.5
20260905122133 32 221 0.0 0.0 0.00 0.00 0.00 43 940.5
20260905121635 31 289 0.0 1.6 0.00 0.00 0.00 43 940.4
20260905121136 31 25 0.0 1.6 0.00 0.00 0.00 44 940.6
20260905120637 31 175 0.0 0.0 0.00 0.00 0.00 45 940.6
20260905120134 31 179 0.0 0.0 0.00 0.00 0.00 45 940.6
20260905115636 32 209 0.0 0.0 0.00 0.00 0.00 44 940.6
20260905115134 31 190 0.0 0.0 0.00 0.00 0.00 43 940.6
20260905114901 31 217 0.0 0.0 0.00 0.00 0.00 42 940.6
20260905114744 31 217 0.0 0.0 0.00 0.00 0.00 42 940.6
20260905114135 31 176 0.0 0.0 0.00 0.00 0.00 45 940.7
20260905113636 31 265 0.0 3.2 0.00 0.00 0.00 46 940.7
20260905113349 31 180 0.0 3.2 0.00 0.00 0.00 45 940.6
20260905113239 31 180 0.0 3.2 0.00 0.00 0.00 45 940.6
20260905112636 31 228 0.0 0.0 0.00 0.00 0.00 45 940.6
20260905112131 30 283 0.0 0.0 0.00 0.00 0.00 44 940.6
20260905111902 30 223 0.0 0.0 0.00 0.00 0.00 43 940.8
20260905111636 30 223 0.0 0.0 0.00 0.00 0.00 43 940.8
20260905111134 30 271 0.0 0.0 0.00 0.00 0.00 42 940.7
20260905110638 30 278 0.0 0.0 0.00 0.00 0.00 44 940.8
20260905110132 30 214 0.0 6.4 0.00 0.00 0.00 45 940.8
20260905105858 30 237 0.0 6.4 0.00 0.00 0.00 45 940.7
20260905105744 30 237 0.0 6.4 0.00 0.00 0.00 45 940.7
20260905105625 30 158 0.0 0.0 0.00 0.00 0.00 43 940.7
20260905105131 30 158 0.0 0.0 0.00 0.00 0.00 43 940.7
20260905104634 30 261 0.0 0.0 0.00 0.00 0.00 44 940.7
20260905104402 30 203 0.0 1.6 0.00 0.00 0.00 44 940.7
20260905104134 30 203 0.0 1.6 0.00 0.00 0.00 44 940.7
20260905103633 30 214 0.0 6.4 0.00 0.00 0.00 44 940.7
20260905103356 31 248 1.6 6.4 0.00 0.00 0.00 45 940.8
20260905103133 31 248 1.6 6.4 0.00 0.00 0.00 45 940.8
20260905102637 30 235 0.0 0.0 0.00 0.00 0.00 44 940.7
20260905102133 30 241 0.0 0.0 0.00 0.00 0.00 44 940.8
20260905101634 30 103 0.0 1.6 0.00 0.00 0.00 44 940.8
20260905101134 30 162 0.0 4.8 0.00 0.00 0.00 44 940.9
20260905101125 30 224 0.0 4.8 0.00 0.00 0.00 44 940.8
20260905100635 30 224 0.0 4.8 0.00 0.00 0.00 44 940.8
20260905100400 30 161 0.0 3.2 0.00 0.00 0.00 43 940.9
20260905100130 30 161 0.0 3.2 0.00 0.00 0.00 43 940.9
20260905095636 30 151 0.0 3.2 0.00 0.00 0.00 42 940.7
20260905095132 30 185 0.0 0.0 0.00 0.00 0.00 43 940.8
20260905094632 30 206 0.0 0.0 0.00 0.00 0.00 44 940.9
20260905094355 30 234 0.0 0.0 0.00 0.00 0.00 41 940.9
20260905094131 30 234 0.0 0.0 0.00 0.00 0.00 41 940.9
20260905093634 30 197 0.0 0.0 0.00 0.00 0.00 44 940.9
20260905093359 30 172 0.0 1.6 0.00 0.00 0.00 43 940.9